Accueil
METAR-TAF:

METAR-TAF

Aéroports :

Diepholz, Allemagne

latitude: 52-35N, longitude: 008-21E, altitude: 39 m

Observation

Le bulletin a été fait il y a 5 heures et 15 minutes, à 13:20 UTC
Vent 8 kt de ouest/sud-ouest
Température 16°C
Humidité 68%
Pression 1019 hPa
Visibilité 10 km ou plus
Nuages fragmentés à une hauteur de 30000 ft

METAR: ETND 171320Z 24008KT 9999 BKN300 16/10 Q1019 BLU+

Heure: 20:35 (18:35 UTC)


TAF: absent

Observations et prévisions météorologiques de plus de 4000 aéroports (messages METAR et TAF).

Les stations disponibles sont représentées par des disques jaunes et rouges sur la carte.

Passer la souris dessus pour voir le nom de la station.

Cliquer dessus pour voir les observations et prévisions météorologiques.

Pour changer de carte: cliquez sur les boutons verts avec une croix noire pour zoomer, sur le bouton vert avec un tiret pour effectuer un zoom arrière, ou sur les flèches vertes pour les cartes adjacentes.


METAR-TAF: